Tracking 19224 objects as of 22-Jul-2018
HD Live streaming from Space Station
objects crossing your sky now

COSMOS 778

Track COSMOS 778 now!
10-day predictions
COSMOS 778 is classified as:


NORAD ID: 8419
Int'l Code: 1975-103A
Perigee: 974.3 km
Apogee: 1,006.2 km
Inclination: 83.0 °
Period: 104.8 minutes
Semi major axis: 7361 km
RCS: 2.3884 m2 (large)
Launch date: November 4, 1975
Source: Commonwealth of Independent States (former USSR) (CIS)
Launch site: PLESETSK MISSILE AND SPACE COMPLEX (PKMTR)
aabbcc
Your satellite tracking list
Your tracking list is empty




NASA's NSSDC Master Catalog

Two Line Element Set (TLE):
1  8419U 75103A   18202.61027903 +.00000020 +00000-0 +48233-5 0  9996
2  8419 082.9738 262.3231 0021675 355.9697 156.5892 13.74593908141860
Source of the keplerian elements: AFSPC